User: anonymous   Login
Location: Camp at the Woods
(43.2055°N, 93.0905°W)
Time: 17:41:25
(UTC+00:00)
Language:

Cosmos 1782 - Orbit

View from above orbital plane
View from above orbital plane
View from above satellite
View from above satellite

Ground track
Ground track

The orbit data is extracted from the following two-line orbital elements,

1 16986U 86074A   24106.99465648  .00011686  00000-0  60508-3 0  9993
2 16986  82.5356 209.2735 0008621 123.8890 236.3164 15.16068839 46942
Epoch (UTC): 15 April 2024 23:52:18
Eccentricity: 0.0008621
inclination: 82.5356°
perigee height: 512 km
apogee height: 523 km
right ascension of ascending node: 209.2735°
argument of perigee: 123.8890°
revolutions per day: 15.16068839
mean anomaly at epoch: 236.3164°
orbit number at epoch: 4694

The dashed part of the orbit path shows where the satellite is in the earth's shadow,  

DLR